EW2910 Weather Reports


Display with metric or nautical units.
time (UTC)temp
F
wind
direction
speed
MPH
gust
MPH
rain 1hr
in
rain 24hr
in
rain mn
in
humidity
%
barometer
mb
20260904053104 76 0 0.0 1.0 0.00 0.04 0.00 96 1014.6
20260904051609 76 0 0.0 1.0 0.00 0.04 0.00 95 1014.7
20260904050105 76 106 0.0 0.0 0.00 0.04 0.00 95 1014.8
20260904044601 76 0 0.0 0.0 0.00 0.04 0.00 96 1015.0
20260904043103 76 0 0.0 0.0 0.00 0.04 0.00 96 1014.9
20260904041607 76 0 0.0 0.0 0.00 0.04 0.00 96 1014.9
20260904040109 76 0 0.0 0.0 0.00 0.04 0.00 96 1015.0
20260904034603 76 0 0.0 0.0 0.00 0.04 0.04 96 1014.8
20260904033104 76 0 0.0 1.0 0.00 0.04 0.04 96 1014.8
20260904031613 76 0 0.0 0.0 0.00 0.04 0.04 96 1014.8
20260904030103 76 0 0.0 1.0 0.00 0.04 0.04 96 1014.8
20260904024611 76 0 0.0 1.0 0.00 0.04 0.04 96 1014.7
20260904023103 76 0 0.0 1.0 0.00 0.04 0.04 95 1014.9
20260904021608 76 0 0.0 1.0 0.00 0.04 0.04 95 1014.7
20260904020116 76 0 0.0 0.0 0.00 0.04 0.04 95 1014.6
20260904014620 76 0 0.0 3.0 0.00 0.04 0.04 94 1014.7
20260904013101 77 0 0.0 6.0 0.00 0.04 0.04 94 1014.9
20260904011601 77 0 0.0 3.0 0.00 0.04 0.04 94 1014.6
20260904010104 77 0 0.0 3.0 0.00 0.04 0.04 93 1014.3
20260904004609 77 0 0.0 3.0 0.00 0.04 0.04 93 1014.0
20260904003103 77 0 0.0 3.0 0.00 0.04 0.04 93 1014.2
20260904001606 78 105 0.0 3.0 0.00 0.04 0.04 92 1014.5
20260904000124 78 0 0.0 2.0 0.00 0.04 0.04 92 1014.3
20260903234605 78 207 0.0 0.0 0.00 0.04 0.04 90 1014.2
20260903233103 79 0 0.0 7.0 0.00 0.04 0.04 88 1014.0
20260903231605 80 126 2.0 13.0 0.00 0.04 0.04 87 1014.3
20260903230109 81 81 3.0 7.0 0.00 0.04 0.04 92 1014.3
20260903224627 81 0 0.0 6.0 0.00 0.04 0.04 91 1014.1
20260903223123 82 108 1.0 7.0 0.00 0.04 0.04 89 1013.5
20260903221608 82 96 1.0 11.0 0.00 0.04 0.04 87 1013.8
20260903220104 83 114 3.0 12.0 0.00 0.04 0.04 85 1013.5
20260903214612 84 84 4.0 12.0 0.00 0.16 0.04 84 1012.9
20260903213114 85 116 3.0 13.0 0.00 0.16 0.04 83 1012.9
20260903211609 87 89 5.0 11.0 0.00 0.16 0.04 82 1012.7
20260903210128 87 0 2.0 9.0 0.00 0.16 0.04 79 1012.7
20260903204603 88 0 0.0 6.0 0.00 1.60 0.04 78 1012.8
20260903203114 88 0 0.0 9.0 0.00 1.60 0.04 78 1012.8
20260903201601 87 332 3.0 9.0 0.00 1.60 0.04 80 1012.7
20260903194603 86 0 2.0 9.0 0.00 2.27 0.04 84 1013.6
20260903193105 86 0 0.0 10.0 0.00 2.27 0.04 85 1013.8
20260903191602 85 0 1.0 7.0 0.00 2.27 0.04 87 1014.2
20260903184603 82 0 5.0 9.0 0.01 2.27 0.04 92 1014.0
20260903183103 81 0 3.0 11.0 0.01 2.27 0.04 93 1014.3
20260903181610 80 0 2.0 9.0 0.01 2.27 0.04 94 1014.1
20260903180104 79 47 0.0 5.0 0.02 2.27 0.04 93 1014.4
20260903174604 78 0 0.0 7.0 0.02 2.26 0.03 95 1014.8
20260903173103 77 0 0.0 4.0 0.03 2.26 0.03 95 1015.0
20260903171608 78 0 0.0 3.0 0.03 2.26 0.03 94 1015.2
20260903164625 80 54 0.0 7.0 0.01 2.24 0.01 91 1015.7
20260903163108 82 96 0.0 6.0 0.00 2.23 0.00 88 1015.4
20260903161602 83 226 0.0 8.0 0.00 2.23 0.00 84 1015.5
20260903160130 86 0 1.0 8.0 0.00 2.23 0.00 83 1015.2
20260903154610 86 0 0.0 5.0 0.00 2.23 0.00 85 1015.5
20260903153108 85 0 0.0 2.0 0.00 2.23 0.00 85 1015.4
20260903151559 85 96 0.0 6.0 0.00 2.23 0.00 84 1015.3
20260903150111 86 90 2.0 7.0 0.00 2.23 0.00 82 1015.5
20260903144606 86 0 0.0 5.0 0.00 2.23 0.00 84 1015.4
20260903143111 85 0 0.0 4.0 0.00 2.23 0.00 86 1015.3
20260903141613 83 116 0.0 3.0 0.00 2.23 0.00 89 1015.4
20260903140107 82 0 0.0 4.0 0.00 2.23 0.00 93 1015.3
20260903134605 81 59 1.0 4.0 0.00 2.23 0.00 97 1015.2
20260903133105 80 0 0.0 2.0 0.00 2.23 0.00 98 1014.9
20260903131603 80 0 0.0 5.0 0.00 2.23 0.00 99 1015.0
20260903130103 79 46 0.0 0.0 0.00 2.23 0.00 99 1015.0
20260903124606 79 0 0.0 6.0 0.00 2.23 0.00 99 1015.0
20260903123102 78 0 0.0 6.0 0.00 2.23 0.00 99 1015.1
20260903121602 78 0 1.0 5.0 0.00 2.23 0.00 99 1014.7
20260903120107 77 0 0.0 3.0 0.00 2.23 0.00 100 1014.4
20260903114606 76 0 0.0 1.0 0.00 2.23 0.00 100 1014.3
20260903113101 76 0 0.0 0.0 0.00 2.23 0.00 99 1014.3
20260903111603 76 0 0.0 0.0 0.00 2.23 0.00 99 1014.2
20260903110105 75 0 0.0 0.0 0.00 2.23 0.00 99 1014.1
20260903104619 76 0 0.0 0.0 0.00 2.23 0.00 99 1013.8
20260903103103 76 0 0.0 0.0 0.00 2.23 0.00 99 1013.7
20260903101610 76 0 0.0 1.0 0.00 2.23 0.00 99 1013.7
20260903100109 76 0 0.0 0.0 0.00 2.23 0.00 99 1013.6
20260903094607 76 0 0.0 0.0 0.00 2.23 0.00 99 1013.6
20260903093112 76 0 0.0 0.0 0.00 2.23 0.00 99 1013.6
20260903091601 76 0 0.0 0.0 0.00 2.23 0.00 99 1013.5
20260903090101 77 0 0.0 0.0 0.00 2.23 0.00 99 1013.5
20260903084604 76 0 0.0 0.0 0.00 2.23 0.00 99 1013.4
20260903083102 76 0 0.0 0.0 0.00 2.23 0.00 99 1013.2
20260903081602 76 0 0.0 0.0 0.00 2.23 0.00 99 1013.3
20260903074559 76 0 0.0 0.0 0.00 2.23 0.00 99 1013.3
20260903073100 77 0 0.0 0.0 0.00 2.23 0.00 99 1013.7
20260903071611 77 0 0.0 0.0 0.00 2.23 0.00 99 1013.7
20260903070109 77 0 0.0 0.0 0.00 2.23 0.00 99 1013.9
20260903064600 77 0 0.0 0.0 0.00 2.23 0.00 99 1013.8
20260903063126 77 0 0.0 0.0 0.00 2.23 0.00 99 1014.1
20260903061601 77 0 0.0 1.0 0.00 2.23 0.00 99 1014.2
20260903060118 77 0 0.0 0.0 0.00 2.23 0.00 99 1014.2
20260903054600 77 0 0.0 0.0 0.00 2.23 0.00 99 1014.3